Location: Home
(42.5358°N, 72.7383°W)
Time: 01:19:04
(UTC-05:00)

Vanguard 1 - Pass Details

Date: 09 December 2021
Orbit: 652 x 3830 km, 34.2° (Epoch: 21 January)

Event Time Altitude Azimuth Distance (km) Brightness Sun altitude
Rises 21:11:27 0° 221° (SW) 6,015 14.3 -52.9°
Reaches altitude 10° 21:15:03 10° 216° (SW) 5,370 13.9 -53.5°
Enters shadow 21:20:52 27° 202° (SSW) 4,571 13.3 -54.5°
Maximum altitude 21:31:35 48° 148° (SSE) 4,222 - -56.3°
Drops below altitude 10° 21:53:10 10° 84° (E) 6,867 - -59.8°
Sets 21:58:31 0° 79° (E) 7,741 - -60.7°
